owner,sensor,date,latitude,longitude,vertical_datum,wind_speed,wind_to_direction,wind_speed_of_gust,qcFlag 
DISL,ioos:station:DISL:CATA:1,2012-11-01T00:00:00Z,30.3085,-88.1395,0.0,4.81,242.2,-9999.0,'1111122,1111122,1111122' 
DISL,ioos:station:DISL:CATA:1,2012-11-01T00:30:00Z,30.3085,-88.1395,0.0,4.59,239.0,-9999.0,'1111122,1111122,1111122' 
DISL,ioos:station:DISL:CATA:1,2012-11-01T01:00:00Z,30.3085,-88.1395,0.0,4.97,243.6,-9999.0,'1111122,1111122,1111122' 
DISL,ioos:station:DISL:CATA:1,2012-11-01T01:30:00Z,30.3085,-88.1395,0.0,5.88,236.8,-9999.0,'1111122,1111122,1111122' 
DISL,ioos:station:DISL:CATA:1,2012-11-01T02:00:00Z,30.3085,-88.1395,0.0,5.68,233.4,-9999.0,'1111122,1111122,1111122' 
DISL,ioos:station:DISL:CATA:1,2012-11-01T02:30:00Z,30.3085,-88.1395,0.0,6.42,231.2,-9999.0,'1111122,1111122,1111122' 
DISL,ioos:station:DISL:CATA:1,2012-11-01T03:00:00Z,30.3085,-88.1395,0.0,6.93,230.3,-9999.0,'1111122,1111122,1111122' 
DISL,ioos:station:DISL:CATA:1,2012-11-01T03:30:00Z,30.3085,-88.1395,0.0,6.33,234.0,-9999.0,'1111122,1111122,1111122' 
DISL,ioos:station:DISL:CATA:1,2012-11-01T04:00:00Z,30.3085,-88.1395,0.0,6.2,238.7,-9999.0,'1111122,1111122,1111122' 
DISL,ioos:station:DISL:CATA:1,2012-11-01T04:30:00Z,30.3085,-88.1395,0.0,6.1,240.4,-9999.0,'1111122,1111122,1111122' 
DISL,ioos:station:DISL:CATA:1,2012-11-01T05:00:00Z,30.3085,-88.1395,0.0,6.53,246.7,-9999.0,'1111122,1111122,1111122' 
DISL,ioos:station:DISL:CATA:1,2012-11-01T05:30:00Z,30.3085,-88.1395,0.0,5.98,251.4,-9999.0,'1111122,1111122,1111122' 
DISL,ioos:station:DISL:CATA:1,2012-11-01T06:00:00Z,30.3085,-88.1395,0.0,5.52,263.2,-9999.0,'1111122,1111122,1111122' 
DISL,ioos:station:DISL:CATA:1,2012-11-01T06:30:00Z,30.3085,-88.1395,0.0,4.12,275.0,-9999.0,'1111122,1111122,1111122' 
DISL,ioos:station:DISL:CATA:1,2012-11-01T07:00:00Z,30.3085,-88.1395,0.0,4.34,273.0,-9999.0,'1111122,1111122,1111122' 
DISL,ioos:station:DISL:CATA:1,2012-11-01T07:30:00Z,30.3085,-88.1395,0.0,5.54,279.8,-9999.0,'1111122,1111122,1111122' 
DISL,ioos:station:DISL:CATA:1,2012-11-01T08:00:00Z,30.3085,-88.1395,0.0,5.2,287.6,-9999.0,'1111122,1111122,1111122' 
DISL,ioos:station:DISL:CATA:1,2012-11-01T08:30:00Z,30.3085,-88.1395,0.0,5.37,278.8,-9999.0,'1111122,1111122,1111122' 
DISL,ioos:station:DISL:CATA:1,2012-11-01T09:00:00Z,30.3085,-88.1395,0.0,5.47,272.9,-9999.0,'1111122,1111122,1111122' 
DISL,ioos:station:DISL:CATA:1,2012-11-01T09:30:00Z,30.3085,-88.1395,0.0,6.14,272.9,-9999.0,'1111122,1111122,1111122' 
DISL,ioos:station:DISL:CATA:1,2012-11-01T10:00:00Z,30.3085,-88.1395,0.0,4.18,293.9,-9999.0,'1111122,1111122,1111122' 
DISL,ioos:station:DISL:CATA:1,2012-11-01T10:30:00Z,30.3085,-88.1395,0.0,4.59,306.9,-9999.0,'1111122,1111122,1111122' 
DISL,ioos:station:DISL:CATA:1,2012-11-01T11:00:00Z,30.3085,-88.1395,0.0,2.95,325.5,-9999.0,'1111122,1111122,1111122' 
DISL,ioos:station:DISL:CATA:1,2012-11-01T11:30:00Z,30.3085,-88.1395,0.0,2.41,332.0,-9999.0,'1111122,1111122,1111122' 
DISL,ioos:station:DISL:CATA:1,2012-11-01T12:00:00Z,30.3085,-88.1395,0.0,2.33,5.321,-9999.0,'1111122,1111122,1111122' 
DISL,ioos:station:DISL:CATA:1,2012-11-01T12:30:00Z,30.3085,-88.1395,0.0,3.36,24.3,-9999.0,'1111122,1111122,1111122' 
DISL,ioos:station:DISL:CATA:1,2012-11-01T13:00:00Z,30.3085,-88.1395,0.0,6.23,38.06,-9999.0,'1111122,1111122,1111122' 
DISL,ioos:station:DISL:CATA:1,2012-11-01T13:30:00Z,30.3085,-88.1395,0.0,5.93,38.62,-9999.0,'1111122,1111122,1111122' 
DISL,ioos:station:DISL:CATA:1,2012-11-01T14:00:00Z,30.3085,-88.1395,0.0,5.59,44.2,-9999.0,'1111122,1111122,1111122' 
DISL,ioos:station:DISL:CATA:1,2012-11-01T14:30:00Z,30.3085,-88.1395,0.0,4.87,39.41,-9999.0,'1111122,1111122,1111122' 
DISL,ioos:station:DISL:CATA:1,2012-11-01T15:00:00Z,30.3085,-88.1395,0.0,4.85,40.68,-9999.0,'1111122,1111122,1111122' 
DISL,ioos:station:DISL:CATA:1,2012-11-01T15:30:00Z,30.3085,-88.1395,0.0,4.27,35.29,-9999.0,'1111122,1111122,1111122' 
DISL,ioos:station:DISL:CATA:1,2012-11-01T16:00:00Z,30.3085,-88.1395,0.0,3.72,38.81,-9999.0,'1111122,1111122,1111122' 
DISL,ioos:station:DISL:CATA:1,2012-11-01T16:30:00Z,30.3085,-88.1395,0.0,2.78,41.3,-9999.0,'1111122,1111122,1111122' 
DISL,ioos:station:DISL:CATA:1,2012-11-01T17:00:00Z,30.3085,-88.1395,0.0,2.07,55.01,-9999.0,'1111122,1111122,1111122' 
DISL,ioos:station:DISL:CATA:1,2012-11-01T17:30:00Z,30.3085,-88.1395,0.0,1.88,70.5,-9999.0,'1111122,1111122,1111122' 
DISL,ioos:station:DISL:CATA:1,2012-11-01T18:00:00Z,30.3085,-88.1395,0.0,1.82,115.2,-9999.0,'1111122,1111122,1111122' 
DISL,ioos:station:DISL:CATA:1,2012-11-01T18:30:00Z,30.3085,-88.1395,0.0,1.78,132.7,-9999.0,'1111122,1111122,1111122' 
DISL,ioos:station:DISL:CATA:1,2012-11-01T19:00:00Z,30.3085,-88.1395,0.0,1.11,145.9,-9999.0,'1111122,1111122,1111122' 
DISL,ioos:station:DISL:CATA:1,2012-11-01T19:30:00Z,30.3085,-88.1395,0.0,1.27,179.8,-9999.0,'1111122,1111122,1111122' 
DISL,ioos:station:DISL:CATA:1,2012-11-01T20:00:00Z,30.3085,-88.1395,0.0,1.16,193.0,-9999.0,'1111122,1111122,1111122' 
DISL,ioos:station:DISL:CATA:1,2012-11-01T20:30:00Z,30.3085,-88.1395,0.0,1.86,194.6,-9999.0,'1111122,1111122,1111122' 
DISL,ioos:station:DISL:CATA:1,2012-11-01T21:00:00Z,30.3085,-88.1395,0.0,1.69,214.8,-9999.0,'1111122,1111122,1111122' 
DISL,ioos:station:DISL:CATA:1,2012-11-01T21:30:00Z,30.3085,-88.1395,0.0,2.11,219.0,-9999.0,'1111122,1111122,1111122' 
DISL,ioos:station:DISL:CATA:1,2012-11-01T22:00:00Z,30.3085,-88.1395,0.0,2.61,215.8,-9999.0,'1111122,1111122,1111122' 
DISL,ioos:station:DISL:CATA:1,2012-11-01T22:30:00Z,30.3085,-88.1395,0.0,2.84,215.4,-9999.0,'1111122,1111122,1111122' 
DISL,ioos:station:DISL:CATA:1,2012-11-01T23:00:00Z,30.3085,-88.1395,0.0,2.01,206.5,-9999.0,'1111122,1111122,1111122' 
DISL,ioos:station:DISL:CATA:1,2012-11-01T23:30:00Z,30.3085,-88.1395,0.0,1.9,218.5,-9999.0,'1111122,1111122,1111122' 
DISL,ioos:station:DISL:CATA:1,2012-11-02T00:00:00Z,30.3085,-88.1395,0.0,2.15,240.1,-9999.0,'1111122,1111122,1111122' 
DISL,ioos:station:DISL:CATA:1,2012-11-02T00:30:00Z,30.3085,-88.1395,0.0,2.33,268.7,-9999.0,'1111122,1111122,1111122' 
DISL,ioos:station:DISL:CATA:1,2012-11-02T01:00:00Z,30.3085,-88.1395,0.0,2.51,273.1,-9999.0,'1111122,1111122,1111122' 
DISL,ioos:station:DISL:CATA:1,2012-11-02T01:30:00Z,30.3085,-88.1395,0.0,2.86,274.5,-9999.0,'1111122,1111122,1111122' 
DISL,ioos:station:DISL:CATA:1,2012-11-02T02:00:00Z,30.3085,-88.1395,0.0,2.37,276.0,-9999.0,'1111122,1111122,1111122' 
DISL,ioos:station:DISL:CATA:1,2012-11-02T02:30:00Z,30.3085,-88.1395,0.0,2.15,258.5,-9999.0,'1111122,1111122,1111122' 
DISL,ioos:station:DISL:CATA:1,2012-11-02T03:00:00Z,30.3085,-88.1395,0.0,2.19,284.1,-9999.0,'1111122,1111122,1111122' 
DISL,ioos:station:DISL:CATA:1,2012-11-02T03:30:00Z,30.3085,-88.1395,0.0,1.44,313.9,-9999.0,'1111122,1111122,1111122' 
DISL,ioos:station:DISL:CATA:1,2012-11-02T04:00:00Z,30.3085,-88.1395,0.0,0.44,320.0,-9999.0,'1111122,1111122,1111122' 
DISL,ioos:station:DISL:CATA:1,2012-11-02T04:30:00Z,30.3085,-88.1395,0.0,0.27,341.9,-9999.0,'1111122,1111122,1111122' 
DISL,ioos:station:DISL:CATA:1,2012-11-02T05:00:00Z,30.3085,-88.1395,0.0,0.0,0.0,-9999.0,'1114422,1114422,1111122' 
DISL,ioos:station:DISL:CATA:1,2012-11-02T05:30:00Z,30.3085,-88.1395,0.0,0.02,219.1,-9999.0,'1111122,1111122,1111122' 
DISL,ioos:station:DISL:CATA:1,2012-11-02T06:00:00Z,30.3085,-88.1395,0.0,0.0,0.0,-9999.0,'1114422,1114422,1111122' 
DISL,ioos:station:DISL:CATA:1,2012-11-02T06:30:00Z,30.3085,-88.1395,0.0,0.0,0.0,-9999.0,'1114422,1114422,1111122' 
DISL,ioos:station:DISL:CATA:1,2012-11-02T07:00:00Z,30.3085,-88.1395,0.0,0.0,0.0,-9999.0,'1114422,1114422,1111122' 
DISL,ioos:station:DISL:CATA:1,2012-11-02T07:30:00Z,30.3085,-88.1395,0.0,0.0,0.0,-9999.0,'1114422,1114422,1111122' 
DISL,ioos:station:DISL:CATA:1,2012-11-02T08:00:00Z,30.3085,-88.1395,0.0,0.03,311.6,-9999.0,'1111122,1111122,1111122' 
DISL,ioos:station:DISL:CATA:1,2012-11-02T08:30:00Z,30.3085,-88.1395,0.0,0.11,104.2,-9999.0,'1111122,1111122,1111122' 
DISL,ioos:station:DISL:CATA:1,2012-11-02T09:00:00Z,30.3085,-88.1395,0.0,0.37,115.6,-9999.0,'1111122,1111122,1111122' 
DISL,ioos:station:DISL:CATA:1,2012-11-02T09:30:00Z,30.3085,-88.1395,0.0,0.01,243.6,-9999.0,'1111122,1111122,1111122' 
DISL,ioos:station:DISL:CATA:1,2012-11-02T10:00:00Z,30.3085,-88.1395,0.0,0.01,18.65,-9999.0,'1111122,1111122,1111122' 
DISL,ioos:station:DISL:CATA:1,2012-11-02T10:30:00Z,30.3085,-88.1395,0.0,0.66,235.0,-9999.0,'1111122,1111122,1111122' 
DISL,ioos:station:DISL:CATA:1,2012-11-02T11:00:00Z,30.3085,-88.1395,0.0,0.42,238.5,-9999.0,'1111122,1111122,1111122' 
DISL,ioos:station:DISL:CATA:1,2012-11-02T11:30:00Z,30.3085,-88.1395,0.0,0.2,243.4,-9999.0,'1111122,1111122,1111122' 
DISL,ioos:station:DISL:CATA:1,2012-11-02T12:00:00Z,30.3085,-88.1395,0.0,0.47,212.0,-9999.0,'1111122,1111122,1111122' 
DISL,ioos:station:DISL:CATA:1,2012-11-02T12:30:00Z,30.3085,-88.1395,0.0,0.38,204.0,-9999.0,'1111122,1111122,1111122' 
DISL,ioos:station:DISL:CATA:1,2012-11-02T13:00:00Z,30.3085,-88.1395,0.0,0.73,236.9,-9999.0,'1111122,1111122,1111122' 
DISL,ioos:station:DISL:CATA:1,2012-11-02T13:30:00Z,30.3085,-88.1395,0.0,0.8,194.0,-9999.0,'1111122,1111122,1111122' 
DISL,ioos:station:DISL:CATA:1,2012-11-02T14:00:00Z,30.3085,-88.1395,0.0,2.26,226.0,-9999.0,'1111122,1111122,1111122' 
DISL,ioos:station:DISL:CATA:1,2012-11-02T14:30:00Z,30.3085,-88.1395,0.0,3.04,231.8,-9999.0,'1111122,1111122,1111122' 
DISL,ioos:station:DISL:CATA:1,2012-11-02T15:00:00Z,30.3085,-88.1395,0.0,3.75,239.6,-9999.0,'1111122,1111122,1111122' 
DISL,ioos:station:DISL:CATA:1,2012-11-02T15:30:00Z,30.3085,-88.1395,0.0,3.91,243.2,-9999.0,'1111122,1111122,1111122' 
DISL,ioos:station:DISL:CATA:1,2012-11-02T16:00:00Z,30.3085,-88.1395,0.0,5.62,253.5,-9999.0,'1111122,1111122,1111122' 
DISL,ioos:station:DISL:CATA:1,2012-11-02T16:30:00Z,30.3085,-88.1395,0.0,7.31,257.0,-9999.0,'1111122,1111122,1111122' 
DISL,ioos:station:DISL:CATA:1,2012-11-02T17:00:00Z,30.3085,-88.1395,0.0,7.7,256.4,-9999.0,'1111122,1111122,1111122' 
DISL,ioos:station:DISL:CATA:1,2012-11-02T17:30:00Z,30.3085,-88.1395,0.0,7.6,258.9,-9999.0,'1111122,1111122,1111122' 
DISL,ioos:station:DISL:CATA:1,2012-11-02T18:00:00Z,30.3085,-88.1395,0.0,7.54,256.3,-9999.0,'1111122,1111122,1111122' 
DISL,ioos:station:DISL:CATA:1,2012-11-02T18:30:00Z,30.3085,-88.1395,0.0,6.71,259.8,-9999.0,'1111122,1111122,1111122' 
DISL,ioos:station:DISL:CATA:1,2012-11-02T19:00:00Z,30.3085,-88.1395,0.0,6.85,255.3,-9999.0,'1111122,1111122,1111122' 
DISL,ioos:station:DISL:CATA:1,2012-11-02T19:30:00Z,30.3085,-88.1395,0.0,5.75,249.1,-9999.0,'1111122,1111122,1111122' 
DISL,ioos:station:DISL:CATA:1,2012-11-02T20:00:00Z,30.3085,-88.1395,0.0,5.05,241.3,-9999.0,'1111122,1111122,1111122' 
DISL,ioos:station:DISL:CATA:1,2012-11-02T20:30:00Z,30.3085,-88.1395,0.0,5.1,238.9,-9999.0,'1111122,1111122,1111122' 
DISL,ioos:station:DISL:CATA:1,2012-11-02T21:00:00Z,30.3085,-88.1395,0.0,5.08,234.7,-9999.0,'1111122,1111122,1111122' 
DISL,ioos:station:DISL:CATA:1,2012-11-02T21:30:00Z,30.3085,-88.1395,0.0,5.36,241.7,-9999.0,'1111122,1111122,1111122' 
DISL,ioos:station:DISL:CATA:1,2012-11-02T22:00:00Z,30.3085,-88.1395,0.0,4.98,244.5,-9999.0,'1111122,1111122,1111122' 
DISL,ioos:station:DISL:CATA:1,2012-11-02T22:30:00Z,30.3085,-88.1395,0.0,5.39,246.9,-9999.0,'1111122,1111122,1111122' 
DISL,ioos:station:DISL:CATA:1,2012-11-02T23:00:00Z,30.3085,-88.1395,0.0,4.95,251.5,-9999.0,'1111122,1111122,1111122' 
DISL,ioos:station:DISL:CATA:1,2012-11-02T23:30:00Z,30.3085,-88.1395,0.0,4.49,241.5,-9999.0,'1111122,1111122,1111122' 
DISL,ioos:station:DISL:CATA:1,2012-11-03T00:00:00Z,30.3085,-88.1395,0.0,4.75,244.8,-9999.0,'1111122,1111122,1111122' 
DISL,ioos:station:DISL:CATA:1,2012-11-03T00:30:00Z,30.3085,-88.1395,0.0,4.01,248.2,-9999.0,'1111122,1111122,1111122' 
DISL,ioos:station:DISL:CATA:1,2012-11-03T01:00:00Z,30.3085,-88.1395,0.0,4.22,241.0,-9999.0,'1111122,1111122,1111122' 
DISL,ioos:station:DISL:CATA:1,2012-11-03T01:30:00Z,30.3085,-88.1395,0.0,4.86,237.3,-9999.0,'1111122,1111122,1111122' 
DISL,ioos:station:DISL:CATA:1,2012-11-03T02:00:00Z,30.3085,-88.1395,0.0,4.39,238.8,-9999.0,'1111122,1111122,1111122' 
DISL,ioos:station:DISL:CATA:1,2012-11-03T02:30:00Z,30.3085,-88.1395,0.0,4.86,236.0,-9999.0,'1111122,1111122,1111122' 
DISL,ioos:station:DISL:CATA:1,2012-11-03T03:00:00Z,30.3085,-88.1395,0.0,4.93,241.5,-9999.0,'1111122,1111122,1111122' 
DISL,ioos:station:DISL:CATA:1,2012-11-03T03:30:00Z,30.3085,-88.1395,0.0,4.69,239.6,-9999.0,'1111122,1111122,1111122' 
DISL,ioos:station:DISL:CATA:1,2012-11-03T04:00:00Z,30.3085,-88.1395,0.0,4.11,244.3,-9999.0,'1111122,1111122,1111122' 
DISL,ioos:station:DISL:CATA:1,2012-11-03T04:30:00Z,30.3085,-88.1395,0.0,3.12,252.7,-9999.0,'1111122,1111122,1111122' 
DISL,ioos:station:DISL:CATA:1,2012-11-03T05:00:00Z,30.3085,-88.1395,0.0,2.85,258.2,-9999.0,'1111122,1111122,1111122' 
DISL,ioos:station:DISL:CATA:1,2012-11-03T05:30:00Z,30.3085,-88.1395,0.0,3.13,259.7,-9999.0,'1111122,1111122,1111122' 
DISL,ioos:station:DISL:CATA:1,2012-11-03T06:00:00Z,30.3085,-88.1395,0.0,2.59,266.4,-9999.0,'1111122,1111122,1111122' 
DISL,ioos:station:DISL:CATA:1,2012-11-03T06:30:00Z,30.3085,-88.1395,0.0,2.91,266.4,-9999.0,'1111122,1111122,1111122' 
DISL,ioos:station:DISL:CATA:1,2012-11-03T07:00:00Z,30.3085,-88.1395,0.0,3.06,276.2,-9999.0,'1111122,1111122,1111122' 
DISL,ioos:station:DISL:CATA:1,2012-11-03T07:30:00Z,30.3085,-88.1395,0.0,3.49,277.2,-9999.0,'1111122,1111122,1111122' 
DISL,ioos:station:DISL:CATA:1,2012-11-03T08:00:00Z,30.3085,-88.1395,0.0,3.76,269.6,-9999.0,'1111122,1111122,1111122' 
DISL,ioos:station:DISL:CATA:1,2012-11-03T08:30:00Z,30.3085,-88.1395,0.0,4.25,268.4,-9999.0,'1111122,1111122,1111122' 
DISL,ioos:station:DISL:CATA:1,2012-11-03T09:00:00Z,30.3085,-88.1395,0.0,4.07,270.0,-9999.0,'1111122,1111122,1111122' 
DISL,ioos:station:DISL:CATA:1,2012-11-03T09:30:00Z,30.3085,-88.1395,0.0,3.76,282.5,-9999.0,'1111122,1111122,1111122' 
DISL,ioos:station:DISL:CATA:1,2012-11-03T10:00:00Z,30.3085,-88.1395,0.0,3.28,281.2,-9999.0,'1111122,1111122,1111122' 
DISL,ioos:station:DISL:CATA:1,2012-11-03T10:30:00Z,30.3085,-88.1395,0.0,3.35,291.2,-9999.0,'1111122,1111122,1111122' 
DISL,ioos:station:DISL:CATA:1,2012-11-03T11:00:00Z,30.3085,-88.1395,0.0,3.18,281.8,-9999.0,'1111122,1111122,1111122' 
DISL,ioos:station:DISL:CATA:1,2012-11-03T11:30:00Z,30.3085,-88.1395,0.0,3.24,276.5,-9999.0,'1111122,1111122,1111122' 
DISL,ioos:station:DISL:CATA:1,2012-11-03T12:00:00Z,30.3085,-88.1395,0.0,3.45,272.7,-9999.0,'1111122,1111122,1111122' 
DISL,ioos:station:DISL:CATA:1,2012-11-03T12:30:00Z,30.3085,-88.1395,0.0,3.91,284.0,-9999.0,'1111122,1111122,1111122' 
DISL,ioos:station:DISL:CATA:1,2012-11-03T13:00:00Z,30.3085,-88.1395,0.0,3.99,283.0,-9999.0,'1111122,1111122,1111122' 
DISL,ioos:station:DISL:CATA:1,2012-11-03T13:30:00Z,30.3085,-88.1395,0.0,3.83,296.1,-9999.0,'1111122,1111122,1111122' 
DISL,ioos:station:DISL:CATA:1,2012-11-03T14:00:00Z,30.3085,-88.1395,0.0,2.47,322.6,-9999.0,'1111122,1111122,1111122' 
DISL,ioos:station:DISL:CATA:1,2012-11-03T14:30:00Z,30.3085,-88.1395,0.0,2.29,296.1,-9999.0,'1111122,1111122,1111122' 
DISL,ioos:station:DISL:CATA:1,2012-11-03T15:00:00Z,30.3085,-88.1395,0.0,2.91,291.0,-9999.0,'1111122,1111122,1111122' 
DISL,ioos:station:DISL:CATA:1,2012-11-03T15:30:00Z,30.3085,-88.1395,0.0,2.82,250.4,-9999.0,'1111122,1111122,1111122' 
DISL,ioos:station:DISL:CATA:1,2012-11-03T16:00:00Z,30.3085,-88.1395,0.0,3.75,251.1,-9999.0,'1111122,1111122,1111122' 
DISL,ioos:station:DISL:CATA:1,2012-11-03T16:30:00Z,30.3085,-88.1395,0.0,4.35,247.4,-9999.0,'1111122,1111122,1111122' 
DISL,ioos:station:DISL:CATA:1,2012-11-03T17:00:00Z,30.3085,-88.1395,0.0,4.69,226.5,-9999.0,'1111122,1111122,1111122' 
DISL,ioos:station:DISL:CATA:1,2012-11-03T17:30:00Z,30.3085,-88.1395,0.0,4.54,218.7,-9999.0,'1111122,1111122,1111122' 
DISL,ioos:station:DISL:CATA:1,2012-11-03T18:00:00Z,30.3085,-88.1395,0.0,4.89,223.0,-9999.0,'1111122,1111122,1111122' 
DISL,ioos:station:DISL:CATA:1,2012-11-03T18:30:00Z,30.3085,-88.1395,0.0,3.97,226.7,-9999.0,'1111122,1111122,1111122' 
DISL,ioos:station:DISL:CATA:1,2012-11-03T19:00:00Z,30.3085,-88.1395,0.0,4.86,224.8,-9999.0,'1111122,1111122,1111122' 
DISL,ioos:station:DISL:CATA:1,2012-11-03T19:30:00Z,30.3085,-88.1395,0.0,4.23,230.4,-9999.0,'1111122,1111122,1111122' 
DISL,ioos:station:DISL:CATA:1,2012-11-03T20:00:00Z,30.3085,-88.1395,0.0,4.34,229.2,-9999.0,'1111122,1111122,1111122' 
DISL,ioos:station:DISL:CATA:1,2012-11-03T20:30:00Z,30.3085,-88.1395,0.0,4.25,229.9,-9999.0,'1111122,1111122,1111122' 
DISL,ioos:station:DISL:CATA:1,2012-11-03T21:00:00Z,30.3085,-88.1395,0.0,4.34,229.8,-9999.0,'1111122,1111122,1111122' 
DISL,ioos:station:DISL:CATA:1,2012-11-03T21:30:00Z,30.3085,-88.1395,0.0,4.07,228.9,-9999.0,'1111122,1111122,1111122' 
DISL,ioos:station:DISL:CATA:1,2012-11-03T22:00:00Z,30.3085,-88.1395,0.0,4.38,221.2,-9999.0,'1111122,1111122,1111122' 
DISL,ioos:station:DISL:CATA:1,2012-11-03T22:30:00Z,30.3085,-88.1395,0.0,4.13,226.3,-9999.0,'1111122,1111122,1111122' 
DISL,ioos:station:DISL:CATA:1,2012-11-03T23:00:00Z,30.3085,-88.1395,0.0,3.44,234.6,-9999.0,'1111122,1111122,1111122' 
DISL,ioos:station:DISL:CATA:1,2012-11-03T23:30:00Z,30.3085,-88.1395,0.0,3.91,233.7,-9999.0,'1111122,1111122,1111122' 
DISL,ioos:station:DISL:CATA:1,2012-11-04T00:00:00Z,30.3085,-88.1395,0.0,3.97,230.4,-9999.0,'1111122,1111122,1111122' 
DISL,ioos:station:DISL:CATA:1,2012-11-04T00:30:00Z,30.3085,-88.1395,0.0,3.69,229.1,-9999.0,'1111122,1111122,1111122' 
DISL,ioos:station:DISL:CATA:1,2012-11-04T01:00:00Z,30.3085,-88.1395,0.0,3.64,232.7,-9999.0,'1111122,1111122,1111122' 
DISL,ioos:station:DISL:CATA:1,2012-11-04T01:30:00Z,30.3085,-88.1395,0.0,3.34,226.4,-9999.0,'1111122,1111122,1111122' 
DISL,ioos:station:DISL:CATA:1,2012-11-04T02:00:00Z,30.3085,-88.1395,0.0,4.15,226.7,-9999.0,'1111122,1111122,1111122' 
DISL,ioos:station:DISL:CATA:1,2012-11-04T02:30:00Z,30.3085,-88.1395,0.0,4.31,225.8,-9999.0,'1111122,1111122,1111122' 
DISL,ioos:station:DISL:CATA:1,2012-11-04T03:00:00Z,30.3085,-88.1395,0.0,4.42,230.9,-9999.0,'1111122,1111122,1111122' 
DISL,ioos:station:DISL:CATA:1,2012-11-04T03:30:00Z,30.3085,-88.1395,0.0,4.67,234.2,-9999.0,'1111122,1111122,1111122' 
DISL,ioos:station:DISL:CATA:1,2012-11-04T04:00:00Z,30.3085,-88.1395,0.0,3.86,242.6,-9999.0,'1111122,1111122,1111122' 
DISL,ioos:station:DISL:CATA:1,2012-11-04T04:30:00Z,30.3085,-88.1395,0.0,2.01,280.8,-9999.0,'1111122,1111122,1111122' 
DISL,ioos:station:DISL:CATA:1,2012-11-04T05:00:00Z,30.3085,-88.1395,0.0,2.67,283.2,-9999.0,'1111122,1111122,1111122' 
DISL,ioos:station:DISL:CATA:1,2012-11-04T05:30:00Z,30.3085,-88.1395,0.0,2.8,273.8,-9999.0,'1111122,1111122,1111122' 
DISL,ioos:station:DISL:CATA:1,2012-11-04T06:00:00Z,30.3085,-88.1395,0.0,3.83,273.8,-9999.0,'1111122,1111122,1111122' 
DISL,ioos:station:DISL:CATA:1,2012-11-04T06:30:00Z,30.3085,-88.1395,0.0,3.65,274.3,-9999.0,'1111122,1111122,1111122' 
DISL,ioos:station:DISL:CATA:1,2012-11-04T07:00:00Z,30.3085,-88.1395,0.0,3.8,264.2,-9999.0,'1111122,1111122,1111122' 
DISL,ioos:station:DISL:CATA:1,2012-11-04T07:30:00Z,30.3085,-88.1395,0.0,3.5,281.8,-9999.0,'1111122,1111122,1111122' 
DISL,ioos:station:DISL:CATA:1,2012-11-04T08:00:00Z,30.3085,-88.1395,0.0,4.19,281.1,-9999.0,'1111122,1111122,1111122' 
DISL,ioos:station:DISL:CATA:1,2012-11-04T08:30:00Z,30.3085,-88.1395,0.0,3.68,280.4,-9999.0,'1111122,1111122,1111122' 
DISL,ioos:station:DISL:CATA:1,2012-11-04T09:00:00Z,30.3085,-88.1395,0.0,3.67,281.1,-9999.0,'1111122,1111122,1111122' 
DISL,ioos:station:DISL:CATA:1,2012-11-04T09:30:00Z,30.3085,-88.1395,0.0,3.68,275.2,-9999.0,'1111122,1111122,1111122' 
DISL,ioos:station:DISL:CATA:1,2012-11-04T10:00:00Z,30.3085,-88.1395,0.0,2.92,280.1,-9999.0,'1111122,1111122,1111122' 
DISL,ioos:station:DISL:CATA:1,2012-11-04T10:30:00Z,30.3085,-88.1395,0.0,3.4,282.3,-9999.0,'1111122,1111122,1111122' 
DISL,ioos:station:DISL:CATA:1,2012-11-04T11:00:00Z,30.3085,-88.1395,0.0,3.91,288.8,-9999.0,'1111122,1111122,1111122' 
DISL,ioos:station:DISL:CATA:1,2012-11-04T11:30:00Z,30.3085,-88.1395,0.0,3.0,305.7,-9999.0,'1111122,1111122,1111122' 
DISL,ioos:station:DISL:CATA:1,2012-11-04T12:00:00Z,30.3085,-88.1395,0.0,2.38,301.7,-9999.0,'1111122,1111122,1111122' 
DISL,ioos:station:DISL:CATA:1,2012-11-04T12:30:00Z,30.3085,-88.1395,0.0,2.89,291.9,-9999.0,'1111122,1111122,1111122' 
DISL,ioos:station:DISL:CATA:1,2012-11-04T13:00:00Z,30.3085,-88.1395,0.0,3.24,308.1,-9999.0,'1111122,1111122,1111122' 
DISL,ioos:station:DISL:CATA:1,2012-11-04T13:30:00Z,30.3085,-88.1395,0.0,2.48,310.2,-9999.0,'1111122,1111122,1111122' 
DISL,ioos:station:DISL:CATA:1,2012-11-04T14:00:00Z,30.3085,-88.1395,0.0,3.49,308.6,-9999.0,'1111122,1111122,1111122' 
DISL,ioos:station:DISL:CATA:1,2012-11-04T14:30:00Z,30.3085,-88.1395,0.0,4.07,313.7,-9999.0,'1111122,1111122,1111122' 
DISL,ioos:station:DISL:CATA:1,2012-11-04T15:00:00Z,30.3085,-88.1395,0.0,6.29,340.5,-9999.0,'1111122,1111122,1111122' 
DISL,ioos:station:DISL:CATA:1,2012-11-04T15:30:00Z,30.3085,-88.1395,0.0,5.55,331.1,-9999.0,'1111122,1111122,1111122' 
DISL,ioos:station:DISL:CATA:1,2012-11-04T16:00:00Z,30.3085,-88.1395,0.0,4.98,323.7,-9999.0,'1111122,1111122,1111122' 
DISL,ioos:station:DISL:CATA:1,2012-11-04T16:30:00Z,30.3085,-88.1395,0.0,3.01,320.1,-9999.0,'1111122,1111122,1111122' 
DISL,ioos:station:DISL:CATA:1,2012-11-04T17:00:00Z,30.3085,-88.1395,0.0,2.89,326.2,-9999.0,'1111122,1111122,1111122' 
DISL,ioos:station:DISL:CATA:1,2012-11-04T17:30:00Z,30.3085,-88.1395,0.0,2.45,117.5,-9999.0,'1111122,1111122,1111122' 
DISL,ioos:station:DISL:CATA:1,2012-11-04T18:00:00Z,30.3085,-88.1395,0.0,1.97,119.4,-9999.0,'1111122,1111122,1111122' 
DISL,ioos:station:DISL:CATA:1,2012-11-04T18:30:00Z,30.3085,-88.1395,0.0,1.6,130.1,-9999.0,'1111122,1111122,1111122' 
DISL,ioos:station:DISL:CATA:1,2012-11-04T19:00:00Z,30.3085,-88.1395,0.0,2.0,140.8,-9999.0,'1111122,1111122,1111122' 
DISL,ioos:station:DISL:CATA:1,2012-11-04T19:30:00Z,30.3085,-88.1395,0.0,2.25,141.9,-9999.0,'1111122,1111122,1111122' 
DISL,ioos:station:DISL:CATA:1,2012-11-04T20:00:00Z,30.3085,-88.1395,0.0,1.52,246.8,-9999.0,'1111122,1111122,1111122' 
DISL,ioos:station:DISL:CATA:1,2012-11-04T20:30:00Z,30.3085,-88.1395,0.0,7.42,332.3,-9999.0,'1111122,1111122,1111122' 
DISL,ioos:station:DISL:CATA:1,2012-11-04T21:00:00Z,30.3085,-88.1395,0.0,4.81,332.0,-9999.0,'1111122,1111122,1111122' 
DISL,ioos:station:DISL:CATA:1,2012-11-04T21:30:00Z,30.3085,-88.1395,0.0,3.02,249.2,-9999.0,'1111122,1111122,1111122' 
DISL,ioos:station:DISL:CATA:1,2012-11-04T22:00:00Z,30.3085,-88.1395,0.0,4.2,262.1,-9999.0,'1111122,1111122,1111122' 
DISL,ioos:station:DISL:CATA:1,2012-11-04T22:30:00Z,30.3085,-88.1395,0.0,5.1,269.4,-9999.0,'1111122,1111122,1111122' 
DISL,ioos:station:DISL:CATA:1,2012-11-04T23:00:00Z,30.3085,-88.1395,0.0,4.43,311.0,-9999.0,'1111122,1111122,1111122' 
DISL,ioos:station:DISL:CATA:1,2012-11-04T23:30:00Z,30.3085,-88.1395,0.0,3.16,353.3,-9999.0,'1111122,1111122,1111122' 
DISL,ioos:station:DISL:CATA:1,2012-11-05T00:00:00Z,30.3085,-88.1395,0.0,3.94,3.707,-9999.0,'1111122,1111122,1111122' 
DISL,ioos:station:DISL:CATA:1,2012-11-05T00:30:00Z,30.3085,-88.1395,0.0,3.39,358.5,-9999.0,'1111122,1111122,1111122' 
DISL,ioos:station:DISL:CATA:1,2012-11-05T01:00:00Z,30.3085,-88.1395,0.0,3.02,358.6,-9999.0,'1111122,1111122,1111122' 
DISL,ioos:station:DISL:CATA:1,2012-11-05T01:30:00Z,30.3085,-88.1395,0.0,2.87,359.2,-9999.0,'1111122,1111122,1111122' 
DISL,ioos:station:DISL:CATA:1,2012-11-05T02:00:00Z,30.3085,-88.1395,0.0,2.76,4.721,-9999.0,'1111122,1111122,1111122' 
DISL,ioos:station:DISL:CATA:1,2012-11-05T02:30:00Z,30.3085,-88.1395,0.0,2.61,355.4,-9999.0,'1111122,1111122,1111122' 
DISL,ioos:station:DISL:CATA:1,2012-11-05T03:00:00Z,30.3085,-88.1395,0.0,2.72,340.8,-9999.0,'1111122,1111122,1111122' 
DISL,ioos:station:DISL:CATA:1,2012-11-05T03:30:00Z,30.3085,-88.1395,0.0,3.02,350.6,-9999.0,'1111122,1111122,1111122' 
DISL,ioos:station:DISL:CATA:1,2012-11-05T04:00:00Z,30.3085,-88.1395,0.0,3.56,351.4,-9999.0,'1111122,1111122,1111122' 
DISL,ioos:station:DISL:CATA:1,2012-11-05T04:30:00Z,30.3085,-88.1395,0.0,2.85,356.8,-9999.0,'1111122,1111122,1111122' 